Вернуться в каталог

STARLINK-3524

АктивенСвязьVLEO
NORAD 51721·PAYLOAD·🇺🇸 United States

Запущен Feb 21, 2022 с Cape Canaveral Space Force Station

Loading…

Ближайшие Пролёты (ближайшие 24 часа)

TLE

СвежийSource: CelesTrak SupGP

Эпоха: Sep 14, 2026, 14:09 UTC

1 51721C 22016H   26257.59006944  .00017191  00000+0  55281-3 0  2575
2 51721  53.1582 187.2974 0001368  92.2365 265.9030 15.31693953    16

Отслеживайте STARLINK-3524 в реальном времени с AllMySat

Download on the App Store